• Join FlightAware (Why Join?)
  • Login
  • US Flag 
02:45AM EDT


 

Airport Tracker/Info


-or-


 

Live Flight TrackerFlight Track Log ✈ SLQ750 ✈ 30-Jan-2014 ✈ CYVR - CYLW

Flight Track Log - Related Links

Times and Time Zones

All times are in EST time to prevent confusion due to time zone crossing. See the SLQ750 flight status page for this flight to view local times or setup timezone preferences in your user account.

Time Position Orientation Groundspeed Altitude Reporting Facility
EST Latitude Longitude Course Direction KTS MPH feet Rate Location/Type
10:32AM 49.1500 -123.1167 33° Northeast 140 161 3,000  Level Vancouver Center
10:33AM 49.1500 -123.0333 90° East 170 196 4,700 1,620 Climbing Vancouver Center
10:34AM 49.1500 -122.9833 90° East 170 196 6,300 1,560 Climbing Vancouver Center
10:35AM 49.1833 -122.9333 44° Northeast 170 196 7,900 1,620 Climbing Vancouver Center
10:36AM 49.2333 -122.8833 33° Northeast 180 207 9,600 1,740 Climbing Vancouver Center
10:37AM 49.3267 -122.8683 44° Northeast  Level FlightAware Approximate
10:37AM 49.2667 -122.8333 44° Northeast 180 207 11,400  Level Vancouver Center
10:38AM 49.3753 -122.8081 33° Northeast  Level FlightAware Approximate
10:38AM 49.3000 -122.7833 44° Northeast 180 207 12,900  Level Vancouver Center
10:39AM 49.3500 -122.7167 41° Northeast 190 219 14,100 1,200 Climbing Vancouver Center
10:40AM 49.3833 -122.6667 44° Northeast 190 219 15,300 1,020 Climbing Vancouver Center
10:41AM 49.4333 -122.6167 33° Northeast 190 219 16,200 900 Climbing Vancouver Center
10:42AM 49.4667 -122.5667 44° Northeast 200 230 17,100 420 Climbing Vancouver Center
10:43AM 49.5167 -122.4833 47° Northeast 220 253 17,100 -60 Level Vancouver Center
10:44AM 49.5667 -122.4333 33° Northeast 230 265 17,000 -60 Descending Vancouver Center
10:45AM 49.6167 -122.3500 47° Northeast 230 265 17,000  Level Vancouver Center
10:46AM 49.6667 -122.3000 33° Northeast 230 265 17,000 -60 Level Vancouver Center
10:47AM 49.7167 -122.2167 47° Northeast 240 276 16,900 -60 Descending Vancouver Center
10:48AM 49.7500 -122.1667 44° Northeast 230 265 16,900  Level Vancouver Center
10:49AM 49.8000 -122.1000 41° Northeast 230 265 16,900  Level Vancouver Center
10:50AM 49.8500 -122.0167 47° Northeast 240 276 16,900  Level Vancouver Center
10:51AM 49.9000 -121.9333 47° Northeast 240 276 16,900  Level Vancouver Center
10:52AM 49.9500 -121.8833 33° Northeast 250 288 16,900  Level Vancouver Center
10:53AM 49.9833 -121.8000 58° Northeast 250 288 17,000  Climbing Vancouver Center
10:54AM 50.0500 -121.7167 39° Northeast 250 288 16,900  Descending Vancouver Center
10:55AM 50.1000 -121.6667 33° Northeast 250 288 17,100 60 Climbing Vancouver Center
10:56AM 50.1167 -121.5333 79° East 260 299 17,100  Level Vancouver Center
10:57AM 50.1333 -121.4333 75° East 270 311 17,100  Level Vancouver Center
10:58AM 50.1333 -121.3167 90° East 270 311 17,100  Level Vancouver Center
10:59AM 50.1500 -121.2000 77° East 270 311 17,100  Level Vancouver Center
11:00AM 50.1333 -121.0833 103° East 270 311 17,100  Level Vancouver Center
11:01AM 50.1500 -120.9500 79° East 270 311 17,100  Level Vancouver Center
11:02AM 50.1667 -120.8500 75° East 270 311 17,100  Level Vancouver Center
11:03AM 50.1667 -120.7167 90° East 270 311 17,100  Level Vancouver Center
11:04AM 50.1833 -120.6167 75° East 270 311 17,100  Level Vancouver Center
11:05AM 50.1833 -120.4833 90° East 280 322 17,100 -180 Level Vancouver Center
11:06AM 50.1833 -120.3833 90° East 280 322 16,800 -780 Descending Vancouver Center
11:07AM 50.2000 -120.2167 81° East 290 334 15,600 -1,200 Descending Vancouver Center
11:08AM 50.2000 -120.1167 90° East 300 345 14,400 -1,200 Descending Vancouver Center
11:09AM 50.2167 -119.9833 79° East 300 345 13,200 -1,320 Descending Vancouver Center
11:10AM 50.2167 -119.8500 90° East 300 345 11,800 -1,500 Descending Vancouver Center
11:11AM 50.2333 -119.7333 77° East 280 322 10,200 -1,560 Descending Vancouver Center
11:12AM 50.2333 -119.6167 90° East 270 311 8,700 -1,200 Descending Vancouver Center
11:13AM 50.2500 -119.5167 75° East 250 288 7,900 -480 Descending Vancouver Center
11:14AM 50.2333 -119.4167 105° East 230 265 7,800 -720 Descending Vancouver Center
11:15AM 50.1667 -119.4000 171° South 230 265 6,500 -1,500 Descending Vancouver Center
11:16AM 50.1000 -119.3667 162° South 250 288 4,800 -1,500 Descending Vancouver Center
11:17AM 50.0500 -119.3833 192° South 210 242 3,500 -1,200 Descending Vancouver Center
11:18AM 50.0000 -119.3833 180° South 170 196 2,500 -900 Descending Vancouver Center
11:19AM 49.9500 -119.3667 168° South 150 173 1,700 -600 Descending Vancouver Center
11:20AM 49.9333 -119.3667 180° South 90 104 1,300 -420 Descending Vancouver Center